Weather in Gusyatin

Ukraine / Ternopil District     49°04′11″N   26°10′55″E
temp.,
°C
wind,
m/s
gust,
m/s
humid.,
%
clouds,
%
prec.,
mm/h
press.,
hPa
HPBL,
m
18 may, tue
tue1800:00+12ene11877 0.0 100210
03:00+11ene119099 0.0 100210
06:00+11ese2292100 0.3 100032
09:00+13s2292100 2.9 1000214
12:00+15nw448087 2.6 1000501
15:00+16wnw5676100 4.1 1000802
18:00+12wnw81496100 3.9 1000501
21:00+11wnw101795100 7.4 1001744
19 may, wed
wed1900:00+11wnw91696100 0.6 1002955
03:00+11wnw101794100 1.2 1003885
06:00+10nw91694100 0.4 1005796
09:00+10wnw81495100 0.8 10061001
12:00+10wnw81491100 0.1 1009786
15:00+13nw71182100 0.4 10091088
18:00+14wnw697631 0.4 1009821
21:00+11nw359060 0.4 101081
20 may, thu
thu2000:00+9nnw34926 0.0 101146
03:00+7nw22935 0.0 101113
06:00+7n2295100 0.0 101017
09:00+12ne3481100 0.0 1010410
12:00+13e2275100 0.6 1010708
15:00+14ne2471100 1.6 1009712
18:00+13nw1284100 2.0 100981
21:00+11nnw3696100 8.9 1010189
21 may, fri
fri2100:00+11n61195100 5.9 1010472
03:00+11nne81496100 13.5 1011581
06:00+10n71494100 5.1 1012572
09:00+11nne61291100 5.4 1015592
12:00+14nne687389 1.6 10151094
15:00+16nne676898 3.3 10151537
18:00+15nne56745 1.6 1016923
21:00+11n34875 2.6 101748
22 may, sat
sat2200:00+9n22894 0.0 101724
03:00+8nne11891 0.0 101710
06:00+8ese118970 0.0 101710
09:00+13sse118082 0.0 1017313
12:00+17sse34655 0.0 1015973
15:00+19sse5560100 0.0 10141167
18:00+19sse56677 0.0 10131008
21:00+14se4984100 0.0 1013172